Location: Grossmotten
(48.5500°N, 15.3833°E)
Time: 08:53:13
(UTC+00:00)

Cosmos 1825 - Pass Details

Date: 15 November 2019
Orbit: 504 x 508 km, 82.5° (Epoch: 12 December)

Event Time Altitude Azimuth Distance (km) Brightness Sun altitude
Rises 04:52:06 0° 187° (S) 2,593 5.9 -12.2°
Reaches altitude 10° 04:54:12 10° 186° (S) 1,714 4.9 -11.9°
Maximum altitude 04:57:57 86° 100° (E) 514 2.2 -11.3°
Drops below altitude 10° 05:01:45 10° 11° (N) 1,730 4.8 -10.7°
Sets 05:03:53 0° 11° (N) 2,620 5.7 -10.3°
